Location: Sternwarte_Laufen
(47.9344°N, 12.9346°E)
Time: 07:00:25
(UTC+01:00)

BlueWalker 3 - Pass Details

Date: 06 February 2023
Orbit: 497 x 515 km, 53.2° (Epoch: 23 March)

Event Time Altitude Azimuth Distance (km) Brightness Sun altitude
Rises 18:35:55 0° 292° (WNW) 2,602 6.7 -13.7°
Reaches altitude 10° 18:38:10 10° 299° (WNW) 1,720 5.5 -14.1°
Maximum altitude 18:41:54 44° 13° (NNE) 715 2.5 -14.7°
Enters shadow 18:43:33 28° 68° (ENE) 991 2.9 -15.0°
